[Iaude] MPEC R113: 2023 RM3 [a=1.36,e=0.62,i=32.2,H=21.8]

mpec at marsden.cfa.harvard.edu mpec at marsden.cfa.harvard.edu
Sun Sep 10 18:16:37 EDT 2023


M.P.E.C. 2023-R113                           Issued 2023 September 10, 22:14 UT

     The Minor Planet Electronic Circulars contain information on unusual
         minor planets, routine data on comets and natural satellites,
         and occasional editorial announcements.  They are published
    on behalf of Division F of the International Astronomical Union by the
          Minor Planet Center, Smithsonian Astrophysical Observatory,
                          Cambridge, MA 02138, U.S.A.
			  
             Prepared using the Tamkin Foundation Computer Network

                              MPC at CFA.HARVARD.EDU
            URL https://www.minorplanetcenter.net/    ISSN 1523-6714

                                    2023 RM3                                    


Observations:
     K23R03M* C2023 09 08.31350721 43 50.811+12 00 30.33         21.91wXER113F51
     K23R03M  C2023 09 08.32245821 43 48.807+11 59 59.95         21.98wXER113F51
     K23R03M  C2023 09 08.33996821 43 44.886+11 59 00.78         22.16wXER113F51
     K23R03M 1C2023 09 08.90268 21 41 42.78 +11 26 43.0          21.1 VXER113033
     K23R03M 1C2023 09 08.90592 21 41 42.07 +11 26 31.7          20.9 VXER113033
     K23R03M 1C2023 09 08.90916 21 41 41.35 +11 26 20.4          21.1 VXER113033
     K23R03M 5C2023 09 08.92044 21 41 38.81 +11 25 41.4          21.6 GXER113033
     K23R03M 5C2023 09 08.92275 21 41 38.30 +11 25 33.1          21.8 GXER113033
     K23R03M 5C2023 09 08.92501 21 41 37.80 +11 25 25.2          21.7 GXER113033
     K23R03M 5C2023 09 08.95894 21 41 30.20 +11 23 27.2          22.1 GXER113033
     K23R03M 5C2023 09 08.96179 21 41 29.56 +11 23 17.5          22.7 GXER113033
     K23R03M 5C2023 09 08.96464 21 41 28.95 +11 23 07.4          21.5 GXER113033
     K23R03M 1C2023 09 09.88539 21 38 06.57 +10 28 27.8          21.2 VXER113033
     K23R03M 1C2023 09 09.88856 21 38 05.86 +10 28 16.4          22.0 VXER113033
     K23R03M 1C2023 09 09.89174 21 38 05.15 +10 28 05.0          21.1 VXER113033
     K23R03M KC2023 09 10.25882 21 36 43.06 +10 05 42.8          21.0 RVER113691
     K23R03M KC2023 09 10.27242 21 36 39.87 +10 04 52.8                VER113691
     K23R03M KC2023 09 10.28594 21 36 36.65 +10 04 03.5                VER113691
     K23R03M 1C2023 09 10.88862 21 34 21.33 +09 26 12.5          20.9 VXER113033
     K23R03M 1C2023 09 10.89168 21 34 20.62 +09 26 00.8          20.7 VXER113033
     K23R03M 1C2023 09 10.89474 21 34 19.93 +09 25 49.1          20.4 VXER113033

Observer details:
033 Karl Schwarzschild Observatory, Tautenburg.  Observers S. Melnikov, C.
    Hoegner, F. Ludwig, M. Hartmann, B. Stecklum, C. Demeautis.  Measurers B.
    Stecklum, C. Demeautis.  1.34-m f/3 Schmidt + CCD.
691 Steward Observatory, Kitt Peak-Spacewatch.  Observer R. A. Mastaler.
    0.9-m f/3 reflector + CCD.
F51 Pan-STARRS 1, Haleakala.  Observers J. Bulger, T. Lowe, P. Minguez, A.
    Schultz, I. Smith.  Measurers K. Chambers, T. de Boer, J. Bulger, J.
    Fairlamb, H. Gao, M. Huber, C.-C. Lin, T. Lowe, E. Magnier, P. Minguez, Y.
    Ramanjooloo, A. Schultz, I. Smith, R. Wainscoat, R. Weryk.  1.8-m Ritchey-
    Chretien + CCD.

Orbital elements:
2023 RM3                                                 Earth MOID = 0.0855 AU
Epoch 2023 Sept. 13.0 TT = JDT 2460200.5                Veres                   
M 306.44342              (2000.0)            P               Q                  
n   0.62097432     Peri.  296.67971     -0.35286160     -0.93339304             
a   1.3606725      Node   172.95535     +0.92844016     -0.34061461             
e   0.6206631      Incl.   32.17907     -0.11613596     +0.11295623             
P   1.59           H   21.86          G   0.15           U   9                  
Residuals in seconds of arc
230908 F51  0.1+  0.2+    230908 033  0.2+  0.1-    230909 033  0.3+  0.0
230908 F51  0.0   0.0     230908 033  0.3+  0.1-    230910 691  0.3+  0.8-
230908 F51  0.1-  0.2-    230908 033  0.1+  0.1+    230910 691  0.2-  0.4-
230908 033  0.1+  0.1+    230908 033  0.1+  0.3+    230910 691  1.5-  0.5+
230908 033  0.3+  0.0     230908 033  0.5+  0.2+    230910 033  0.1-  0.2+
230908 033  0.3+  0.0     230909 033  0.1-  0.3-    230910 033  0.1-  0.1+
230908 033  0.1+  0.2+    230909 033  0.1+  0.2-    230910 033  0.2+  0.1+

Ephemeris:
2023 RM3                 a,e,i = 1.36, 0.62, 32                  q = 0.5162
Date    TT    R. A. (2000) Decl.     Delta      r    Elong.  Phase     V
2023 08 11    22 50 22.9 +24 13 13   0.7383  1.6201   134.7    26.4    23.4
...
2023 08 26    22 23 51.6 +20 45 01   0.5465  1.5041   148.5    20.5    22.5
...
2023 09 03    22 01 42.7 +16 21 06   0.4619  1.4370   153.5    18.3    21.9
...
2023 09 09    21 41 21.7 +11 21 20   0.4095  1.3841   152.7    19.5    21.6
2023 09 10    21 37 41.2 +10 21 47   0.4019  1.3751   152.0    20.1    21.6
2023 09 11    21 33 56.2 +09 19 25   0.3947  1.3660   151.2    20.8    21.5
...
2023 09 17    21 10 07.4 +02 08 04   0.3586  1.3102   143.2    27.4    21.4
...
2023 09 25    20 36 07.7 -09 26 20   0.3322  1.2323   127.1    40.5    21.5
...
2023 10 10    19 31 19.3 -31 26 42   0.3429  1.0755    93.5    68.0    22.1

M. P. C. Staff               (C) Copyright 2023 MPC           M.P.E.C. 2023-R113





More information about the Iaude mailing list